Weather Roundup
Issued by NWS

Home | Current Version | Previous Version | Text Only | Print | Product List | Glossary On
Versions: 1 2 3 4 5 6 7 8 9 10 11 12 13 14 15 16 17 18 19 20 21 22 23 24 25 26 27 28 29 30 31 32 33 34 35 36 37 38 39 40 41 42 43 44 45 46 47 48 49 50
061
NZUS93 KARX 182059
HRRWXR

CURRENT HOURLY OBSERVATIONS ACROSS
MUCH OF THE UPPER MISSISSIPPI VALLEY
NATIONAL WEATHER SERVICE LA CROSSE WI
300 PM CST THU JAN 18 2018


...SOUTHEAST MINNESOTA...


CITY           SKY/WX    TMP DP  RH WIND       PRES   REMARKS
ROCHESTER      FAIR      33  27  78 S14       29.82F WCI  23
ROCHESTER/MAYO FAIR      37  25  60 S8G17     29.83F WCI  31
WINONA         FAIR      37  27  65 SW6       29.83F WCI  33
AUSTIN         NOT AVBL
ALBERT LEA     FAIR      36  25  64 SW9G17    29.82F WCI  29
DODGE CENTER   FAIR      36  27  69 SW15      29.81F WCI  26
PRESTON        FAIR      34  24  68 SW12G23   29.84F WCI  25
OWATONNA       FAIR      36  28  75 SW12      29.82F WCI  27
FARIBAULT      FAIR      37  28  70 S8        29.81F WCI  31
$$

...ELSEWHERE IN MINNESOTA...


CITY           SKY/WX    TMP DP  RH WIND       PRES   REMARKS
MINNEAPOLIS    PTSUNNY   40  27  59 SW6       29.79F
INTNL FALLS    CLOUDY    29  21  72 W8        29.70R WCI  21
DULUTH         CLOUDY    34  26  72 W14       29.70R WCI  25
RED WING       FAIR      39  21  48 SW7       29.81S WCI  34
REDWOOD FALLS  FAIR      43  31  62 SW7       29.78S
MANKATO        FAIR      42  30  62 SW10      29.80F
WORTHINGTON    FAIR      37  28  70 SW15      29.81S WCI  28
FAIRMONT       FAIR      40  28  62 SW14      29.80F WCI  32
$$

...SOUTHWEST WISCONSIN...


CITY           SKY/WX    TMP DP  RH WIND       PRES   REMARKS
LA CROSSE      FAIR      35  24  64 S8        29.85F WCI  29
PRAIRIE DU CHI FAIR      35  20  54 SW10      29.91F WCI  27
BOSCOBEL       FAIR      36  20  52 SW9       29.91F WCI  29
LONE ROCK      NOT AVBL
PLATTEVILLE    FAIR      33  22  65 SW15      29.92F WCI  23
FORT MC COY    FAIR      38  23  55 SW9       29.86R WCI  31
CAMP DOUGLAS   MOSUNNY   36  21  55 SW14      29.83S WCI  27
MAUSTON-NEW LI FAIR      37  22  54 SW10G17   29.83F WCI  29
VIROQUA        FAIR      33  24  68 SW12      29.85S WCI  25
WIS DELLS      FAIR      33  20  58 SW15G21   29.84F WCI  23
$$

...ELSEWHERE IN WISCONSIN...


CITY           SKY/WX    TMP DP  RH WIND       PRES   REMARKS
MILWAUKEE      FAIR      33  19  56 SW16G31   29.90F WCI  23
MADISON        FAIR      32  19  58 MISG      29.89F
GREEN BAY      FAIR      32  20  61 SW15G25   29.77F WCI  22
EAU CLAIRE     NOT AVBL
BLACK RVR FLS  FAIR      38  19  44 SW6       29.83S WCI  34
MEDFORD          N/A     32  20  61 SW9       29.74S WCI  25
WAUSAU         FAIR      34  20  56 W10       29.74S WCI  26
WIS RAPIDS     FAIR      37  19  48 W12G18    29.81S WCI  29
MARSHFIELD     FAIR      35  21  56 W12       29.76S WCI  27
RICE LAKE      FAIR      37  22  56 SW6       29.78S WCI  32
$$

...NORTHEAST IOWA...


CITY           SKY/WX    TMP DP  RH WIND       PRES   REMARKS
WATERLOO       FAIR      36  22  56 SW17      29.92F WCI  26
DUBUQUE        FAIR      32  18  56 SW18      29.91F WCI  20
DECORAH        FAIR      36  23  60 VRB6G15   29.86F WCI  31
MASON CITY     FAIR      34  22  61 SW15      29.87F WCI  24
CHARLES CITY   FAIR      34  25  69 SW12G18   29.88F WCI  25
OELWEIN        FAIR      34  27  75 SW17      29.91F WCI  23
$$

...ELSEWHERE IN IOWA...


CITY           SKY/WX    TMP DP  RH WIND       PRES   REMARKS
DES MOINES     PTSUNNY   37  20  50 SW16      29.96F WCI  28
IOWA CITY      FAIR      37  20  50 S10       30.02F WCI  30
FORT DODGE     FAIR      36  23  59 SW16      29.88F WCI  26
MARSHALLTOWN   FAIR      35  22  58 S15       29.93F WCI  25
CEDAR RAPIDS   FAIR      35  21  56 SW15      29.96F WCI  25
$$

...NORTHERN ILLINOIS...


CITY           SKY/WX    TMP DP  RH WIND       PRES   REMARKS
CHICAGO-OHARE  FAIR      32  17  54 SW16G24   29.98F WCI  21
CHICAGO-MIDWAY FAIR      33  18  53 SW15      30.02F WCI  23
MOLINE         FAIR      35  21  56 SW12      30.02F WCI  27
ROCKFORD       FAIR      30  19  63 S12       29.99F WCI  20
PEORIA         FAIR      36  19  50 SW20      30.08F WCI  25
$$

NOTE: "FAIR" INDICATES FEW OR NO CLOUDS BELOW 12,000 FEET WITH NO
SIGNIFICANT WEATHER AND/OR OBSTRUCTIONS TO VISIBILITY. WIND
SPEEDS ARE IN MILES-PER-HOUR.




USA.gov is the U.S. government's official web portal to all federal, state and local government web resources and services.